[Date Prev][Date Next][Thread Prev][Thread Next] - [Date Index][Thread Index][Author Index]

2 Line ISS Keps 5-12



ISS
1 25544U 98067A   03132.15679701  .00013820  00000-0  17883-3 0  9988
2 25544  51.6312 201.2910 0006366 106.0704 356.3866 15.59202680255382


----
Via the sarex mailing list at AMSAT.ORG courtesy of AMSAT-NA.
To unsubscribe, send "unsubscribe sarex" to Majordomo@amsat.org



AMSAT Top AMSAT Home